Location: El Abasto
(10.3790°N, 67.5897°W)
Time: 19:15:50
(UTC+00:00)

Centaur D AC-29 - Pass Details

Date: 19 May 2024
Orbit: 616 x 36205 km, 26.4° (Epoch: 11 June)

Event Time Altitude Azimuth Distance (km) Brightness Sun altitude
Rises 22:59:55 0° 250° (WSW) 4,238 6.2 -4.1°
Reaches altitude 10° 23:03:21 10° 253° (WSW) 2,463 5.0 -4.9°
Maximum altitude 23:07:39 61° 335° (NNW) 695 1.6 -5.8°
Drops below altitude 10° 23:11:30 10° 57° (ENE) 2,213 3.6 -6.7°
Sets 23:14:23 0° 61° (ENE) 3,718 4.7 -7.4°
